Date String (YYYY-MM-DD hh:mm:ss) UTC,Instrument flags,absolute air pressure of the measurement (hPa),sample flow rate (lpm),inlet stack bypass flow (lpm),air temperature of the measurement (°C),ambient temperature measured by the external sensor (°C),aerosol sample conditioner tube jacket temperature (°C),OPC LED temperature (°C),internal box temperature (°C),relative humidity of the measurement (%),span deviation,mass concentration of particles derived from Lorenz-Mie calculation of OPC scattering (μg/m³),mass concentration of particles derived from Lorenz-Mie calculation of OPC scattering (μg/m³),mass concentration of particles derived from Lorenz-Mie calculation of OPC scattering (μg/m³)
DateTimeUTC,F1_M11,P_M11,Q1_M11,Q2_M11,T1_M11,T2_M11,T3_M11,T4_M11,T5_M11,U1_M11,ZSPAN_M11,X2_M11,X0_M11,X1_M11
2023-07-19 03:00:00,SystemResetWarning,0833.4,5.00,000.00,028.7,027.2,000.0,037.1,030.5,31.5,0000.0,0007.32,0014.37,0006.23
2023-07-19 03:01:00,SystemResetWarning,0833.4,5.00,000.00,028.8,027.5,000.0,037.1,030.5,31.3,0000.0,0007.33,0014.07,0006.23
2023-07-19 03:02:00,SystemResetWarning,0833.4,5.00,000.00,028.8,027.6,000.0,037.2,030.6,31.1,0000.0,0007.27,0013.38,0006.23
2023-07-19 03:03:00,SystemResetWarning,0833.5,4.99,000.00,028.9,026.3,000.0,037.0,030.5,31.1,0000.0,0007.23,0012.65,0006.22
2023-07-19 03:04:00,SystemResetWarning,0833.4,5.01,000.00,028.8,025.4,000.0,037.0,030.3,31.3,0000.0,0007.23,0013.05,0006.22
2023-07-19 03:05:00,SystemResetWarning,0833.5,5.01,000.00,028.7,025.4,000.0,037.0,030.1,31.3,0000.0,0007.23,0013.65,0006.22
2023-07-19 03:06:00,SystemResetWarning,0833.5,5.00,000.00,028.7,025.7,000.0,037.0,030.1,31.6,0000.0,0007.26,0014.11,0006.23
2023-07-19 03:07:00,SystemResetWarning,0833.6,5.00,000.00,028.7,026.1,000.0,037.0,030.2,31.5,0000.0,0007.24,0014.84,0006.23
2023-07-19 03:08:00,SystemResetWarning,0833.6,5.00,000.00,028.7,026.5,000.0,037.1,030.3,31.5,0000.0,0007.24,0015.99,0006.22
2023-07-19 03:09:00,SystemResetWarning,0833.7,5.01,000.00,028.7,026.8,000.0,037.1,030.4,31.3,0000.0,0007.23,0016.37,0006.21
2023-07-19 03:10:00,SystemResetWarning,0833.7,5.00,000.00,028.8,027.2,000.0,037.1,030.5,31.3,0000.0,0007.18,0015.90,0006.22
2023-07-19 03:11:00,SystemResetWarning,0833.7,5.00,000.00,028.8,027.4,000.0,037.1,030.5,31.1,0000.0,0007.16,0016.08,0006.21
2023-07-19 03:12:00,SystemResetWarning,0833.7,5.00,000.00,028.9,027.6,000.0,037.2,030.6,30.8,0000.0,0007.19,0016.80,0006.21
2023-07-19 03:13:00,SystemResetWarning,0833.6,4.98,000.00,028.9,026.5,000.0,037.1,030.5,30.8,0000.0,0007.20,0016.85,0006.21
2023-07-19 03:14:00,SystemResetWarning,0833.6,5.01,000.00,028.8,024.9,000.0,037.0,030.2,30.9,0000.0,0007.25,0016.93,0006.23
2023-07-19 03:15:00,SystemResetWarning,0833.5,5.01,000.00,028.7,024.4,000.0,036.9,030.0,31.1,0000.0,0007.24,0016.59,0006.23
2023-07-19 03:16:00,SystemResetWarning,0833.5,5.00,000.00,028.6,024.6,000.0,036.9,029.9,31.3,0000.0,0007.25,0016.55,0006.23
2023-07-19 03:17:00,SystemResetWarning,0833.5,5.00,000.00,028.5,025.1,000.0,037.0,029.9,32.9,0000.0,0007.25,0017.07,0006.23
2023-07-19 03:18:00,SystemResetWarning,0833.5,5.00,000.00,028.5,025.6,000.0,037.0,030.0,32.8,0000.0,0007.25,0017.18,0006.23
2023-07-19 03:19:00,SystemResetWarning,0833.6,5.00,000.00,028.6,026.0,000.0,037.0,030.1,32.2,0000.0,0007.24,0016.35,0006.24
2023-07-19 03:20:00,SystemResetWarning,0833.7,5.00,000.00,028.6,026.5,000.0,037.0,030.2,32.1,0000.0,0007.24,0016.13,0006.24
2023-07-19 03:21:00,SystemResetWarning,0833.7,5.00,000.00,028.6,026.8,000.0,037.0,030.3,31.6,0000.0,0007.26,0016.27,0006.24
2023-07-19 03:22:00,SystemResetWarning,0833.7,5.00,000.00,028.7,027.1,000.0,037.1,030.4,31.1,0000.0,0007.30,0016.01,0006.24
2023-07-19 03:23:00,SystemResetWarning,0833.7,4.99,000.00,028.7,027.3,000.0,037.1,030.4,30.9,0000.0,0007.27,0015.04,0006.23
2023-07-19 03:24:00,SystemResetWarning,0833.7,4.99,000.00,028.8,027.6,000.0,037.1,030.5,30.4,0000.0,0007.24,0015.21,0006.23
2023-07-19 03:25:00,SystemResetWarning,0833.7,5.01,000.00,028.8,027.7,000.0,037.1,030.6,30.5,0000.0,0007.28,0015.61,0006.23
2023-07-19 03:26:00,SystemResetWarning,0833.7,5.00,000.00,028.8,027.1,000.0,037.1,030.5,30.9,0000.0,0007.35,0015.78,0006.24
2023-07-19 03:27:00,SystemResetWarning,0833.7,5.00,000.00,028.8,025.6,000.0,037.0,030.3,31.2,0000.0,0007.36,0015.23,0006.24
2023-07-19 03:28:00,SystemResetWarning,0833.7,5.01,000.00,028.7,025.3,000.0,036.9,030.1,32.1,0000.0,0007.39,0014.64,0006.24
2023-07-19 03:29:00,SystemResetWarning,0833.7,5.00,000.00,028.7,025.5,000.0,037.0,030.0,33.0,0000.0,0007.46,0013.79,0006.25
2023-07-19 03:30:00,SystemResetWarning,0833.7,5.00,000.00,028.6,025.9,000.0,037.0,030.1,33.9,0000.0,0007.48,0013.93,0006.26
2023-07-19 03:31:00,SystemResetWarning,0833.7,5.00,000.00,028.7,026.3,000.0,037.1,030.2,34.4,0000.0,0007.46,0013.49,0006.26
2023-07-19 03:32:00,SystemResetWarning,0833.7,5.00,000.00,028.7,026.7,000.0,037.1,030.3,34.4,0000.0,0007.46,0014.05,0006.26
2023-07-19 03:33:00,SystemResetWarning,0833.7,5.00,000.00,028.7,027.0,000.0,037.1,030.4,34.3,0000.0,0007.44,0013.94,0006.26
2023-07-19 03:34:00,SystemResetWarning,0833.7,4.99,000.00,028.8,027.3,000.0,037.1,030.5,34.5,0000.0,0007.40,0013.82,0006.26
2023-07-19 03:35:00,SystemResetWarning,0833.7,4.99,000.00,028.8,027.5,000.0,037.2,030.6,34.9,0000.0,0007.44,0014.12,0006.25
2023-07-19 03:36:00,SystemResetWarning,0833.8,5.00,000.00,028.9,027.6,000.0,037.2,030.6,34.4,0000.0,0007.36,0013.83,0006.22
2023-07-19 03:37:00,SystemResetWarning,0833.8,4.99,000.00,028.9,026.5,000.0,037.1,030.6,33.6,0000.0,0007.27,0013.70,0006.19
2023-07-19 03:38:00,SystemResetWarning,0833.8,5.01,000.00,028.8,025.4,000.0,037.0,030.3,33.3,0000.0,0007.23,0013.84,0006.15
2023-07-19 03:39:00,SystemResetWarning,0833.8,5.01,000.00,028.8,025.4,000.0,037.0,030.1,33.2,0000.0,0007.16,0014.01,0006.13
2023-07-19 03:40:00,SystemResetWarning,0833.8,5.00,000.00,028.7,025.7,000.0,037.0,030.1,33.4,0000.0,0007.10,0015.33,0006.11
2023-07-19 03:41:00,SystemResetWarning,0833.8,4.99,000.00,028.7,026.1,000.0,037.1,030.2,33.4,0000.0,0007.06,0016.07,0006.08
2023-07-19 03:42:00,SystemResetWarning,0833.9,5.00,000.00,028.7,026.5,000.0,037.1,030.3,33.4,0000.0,0007.09,0016.23,0006.07
2023-07-19 03:43:00,SystemResetWarning,0833.9,5.01,000.00,028.7,026.8,000.0,037.1,030.4,33.4,0000.0,0007.14,0015.93,0006.06
2023-07-19 03:44:00,SystemResetWarning,0833.9,5.00,000.00,028.8,027.1,000.0,037.2,030.5,33.0,0000.0,0007.14,0016.11,0006.05
2023-07-19 03:45:00,SystemResetWarning,0833.9,4.98,000.00,028.8,027.4,000.0,037.2,030.5,32.7,0000.0,0007.15,0016.31,0006.04
2023-07-19 03:46:00,SystemResetWarning,0833.9,5.00,000.00,028.9,027.6,000.0,037.2,030.6,32.5,0000.0,0007.12,0016.01,0006.05
2023-07-19 03:47:00,SystemResetWarning,0833.9,5.00,000.00,028.9,027.5,000.0,037.2,030.7,32.3,0000.0,0007.18,0015.84,0006.06
2023-07-19 03:48:00,SystemResetWarning,0833.9,5.00,000.00,028.9,026.0,000.0,037.1,030.4,32.2,0000.0,0007.21,0016.96,0006.06
2023-07-19 03:49:00,SystemResetWarning,0834.0,5.01,000.00,028.8,025.3,000.0,037.0,030.3,32.3,0000.0,0007.25,0017.93,0006.07
2023-07-19 03:50:00,SystemResetWarning,0834.0,5.00,000.00,028.8,025.5,000.0,037.1,030.2,32.5,0000.0,0007.29,0017.79,0006.06
2023-07-19 03:51:00,SystemResetWarning,0834.0,4.98,000.00,028.7,025.8,000.0,037.1,030.2,32.4,0000.0,0007.24,0016.71,0006.04
2023-07-19 03:52:00,SystemResetWarning,0834.1,5.00,000.00,028.7,026.2,000.0,037.1,030.3,32.3,-000.2,0007.22,0016.70,0006.01
2023-07-19 03:53:00,SystemResetWarning,0834.1,5.01,000.00,028.8,026.6,000.0,037.2,030.3,32.2,-000.6,0007.18,0016.31,0006.00
2023-07-19 03:54:00,SystemResetWarning,0834.1,5.01,000.00,028.8,026.9,000.0,037.2,030.5,32.0,0000.0,0007.11,0016.90,0005.98
2023-07-19 03:55:00,SystemResetWarning,0834.1,4.99,000.00,028.8,027.2,000.0,037.2,030.5,32.1,0000.0,0007.11,0017.27,0005.96
2023-07-19 03:56:00,SystemResetWarning,0834.1,5.00,000.00,028.9,027.5,000.0,037.2,030.6,31.8,0000.0,0007.10,0017.67,0005.91
2023-07-19 03:57:00,SystemResetWarning,0834.1,4.99,000.00,028.9,027.7,000.0,037.3,030.7,31.6,0000.0,0007.12,0018.88,0005.89
2023-07-19 03:58:00,SystemResetWarning,0834.2,5.00,000.00,029.0,027.2,000.0,037.2,030.7,31.5,0000.0,0007.11,0019.58,0005.86
2023-07-19 03:59:00,SystemResetWarning,0834.2,5.00,000.00,028.9,025.4,000.0,037.1,030.4,31.6,0000.0,0007.12,0018.96,0005.84
